Del Norte, CO

2:12 AM MST on February 06, 2016 (GMT -0700)
Wolf Creek Pass

Weather History for KCPW - February, 2014

Change the Weather History Date:

Thursday, February 20, 2014

  Actual Average (KALS) Record (KALS)
Temperature  
Mean Temperature 5 °F 25 °F  
Max Temperature 14 °F 42 °F 64 °F (1935)
Min Temperature -4 °F 8 °F -19 °F (1955)
Degree Days  
Heating Degree Days 60 40  
Month to date heating degree days 874  
Since 1 July heating degree days 6021  
Cooling Degree Days 0 0  
Month to date cooling degree days 0  
Year to date cooling degree days 0  
Moisture  
Dew Point -11 °F    
Average Humidity 52    
Maximum Humidity 85    
Minimum Humidity 20    
Precipitation  
Precipitation 0.00 in 0.01 in 0.16 in (1938)
Month to date precipitation 0.18  
Year to date precipitation 0.44  
Snow  
Snow 0.00 in 0.20 in 2.70 in (1938)
Month to date snowfall 2.8  
Since 1 July snowfall 17.1  
Snow Depth -    
Sea Level Pressure  
Sea Level Pressure 29.91 in    
Wind  
Wind Speed 10 mph (West)    
Max Wind Speed 28 mph    
Max Gust Speed 40 mph    
Visibility 10 miles    
Events      
T = Trace of Precipitation, MM = Missing Value Source: NWS Daily Summary

Daily Weather History Graph

Daily Weather History Graph

Search for Another Location

Airport or City:

Trip Planner

Search our weather history database for the weather conditions in past years. The results will help you decide how hot, cold, wet, or windy it might be!

Date:

Astronomy

Feb. 20, 2014 Rise Set
Actual Time 6:50 AM MST 5:52 PM MST
Civil Twilight 6:23 AM MST 6:18 PM MST
Nautical Twilight 5:53 AM MST 6:49 PM MST
Astronomical Twilight 5:23 AM MST 7:19 PM MST
Moon 11:41 PM MST (2/20) 9:42 AM MST (2/20)
Length of Visible Light 11h 54m
Length of Day
11h 01m
Waning Gibbous, 70% of the Moon is Illuminated
Feb 20
Waning Gibbous
Feb 22
Last Quarter
Mar 1
New
Mar 8
First Quarter
Mar 16
Full

Hourly Weather History & Observations

Time (MST) Temp. Windchill Dew Point Humidity Pressure Visibility Wind Dir Wind Speed Gust Speed Precip Events Conditions
12:01 AM 8.6 °F -1.3 °F 1.4 °F 73% 29.72 in 7.0 mi North 5.8 mph - N/A   Scattered Clouds
12:21 AM 6.8 °F -3.5 °F 3.2 °F 85% 29.71 in 10.0 mi North 5.8 mph - N/A   Scattered Clouds
12:41 AM 6.8 °F -0.1 °F 1.4 °F 79% 29.71 in 10.0 mi West 3.5 mph - N/A   Clear
1:01 AM 5.0 °F - 1.4 °F 85% 29.73 in 10.0 mi Calm Calm - N/A   Clear
1:21 AM 5.0 °F -9.1 °F -0.4 °F 78% 29.73 in 10.0 mi NNW 9.2 mph - N/A   Scattered Clouds
1:41 AM 3.2 °F -7.8 °F -2.2 °F 78% 29.73 in 10.0 mi NW 5.8 mph - N/A   Scattered Clouds
2:01 AM 3.2 °F -7.8 °F -4.0 °F 72% 29.73 in 10.0 mi WSW 5.8 mph - N/A   Clear
2:21 AM 3.2 °F -17.6 °F -7.6 °F 61% 29.71 in 10.0 mi WSW 19.6 mph 24.2 mph N/A   Clear
2:41 AM 1.4 °F -12.5 °F -9.4 °F 61% 29.72 in 10.0 mi West 8.1 mph 12.7 mph N/A   Clear
3:01 AM 1.4 °F -6.2 °F -7.6 °F 66% 29.73 in 10.0 mi WSW 3.5 mph - N/A   Clear
3:21 AM 1.4 °F -9.9 °F -7.6 °F 66% 29.72 in 10.0 mi SW 5.8 mph - N/A   Clear
3:41 AM 1.4 °F -8.3 °F -9.4 °F 61% 29.71 in 10.0 mi WNW 4.6 mph - N/A   Clear
4:01 AM -0.4 °F -14.7 °F -9.4 °F 66% 29.72 in 10.0 mi WSW 8.1 mph - N/A   Clear
4:21 AM -0.4 °F -10.4 °F -9.4 °F 66% 29.74 in 10.0 mi SW 4.6 mph - N/A   Clear
4:41 AM -0.4 °F - -9.4 °F 66% 29.74 in 5.0 mi Calm Calm - N/A   Haze
5:01 AM -0.4 °F - -11.2 °F 60% 29.75 in 10.0 mi Calm Calm - N/A   Clear
5:21 AM -2.2 °F -15.6 °F -9.4 °F 71% 29.75 in 10.0 mi WNW 6.9 mph - N/A   Clear
5:41 AM -2.2 °F -18.9 °F -13.0 °F 60% 29.76 in 10.0 mi WNW 10.4 mph 17.3 mph N/A   Clear
6:01 AM -4.0 °F -19.0 °F -13.0 °F 65% 29.77 in 10.0 mi West 8.1 mph - N/A   Clear
6:21 AM -4.0 °F -14.6 °F -13.0 °F 65% 29.78 in 10.0 mi NW 4.6 mph - N/A   Scattered Clouds
6:41 AM -4.0 °F -23.0 °F -13.0 °F 65% 29.79 in 10.0 mi WNW 12.7 mph 20.7 mph N/A   Clear
7:01 AM -4.0 °F -22.1 °F -13.0 °F 65% 29.79 in 10.0 mi NW 11.5 mph 18.4 mph N/A   Clear
7:21 AM -4.0 °F -22.1 °F -13.0 °F 65% 29.80 in 10.0 mi NW 11.5 mph 21.9 mph N/A   Scattered Clouds
7:41 AM -4.0 °F -17.8 °F -13.0 °F 65% 29.82 in 10.0 mi North 6.9 mph 20.7 mph N/A   Scattered Clouds
8:01 AM -2.2 °F -15.6 °F -9.4 °F 71% 29.84 in 10.0 mi NNW 6.9 mph 17.3 mph N/A   Scattered Clouds
8:21 AM -2.2 °F -15.6 °F -9.4 °F 71% 29.85 in 10.0 mi NNW 6.9 mph - N/A   Clear
8:41 AM -0.4 °F -14.7 °F -9.4 °F 66% 29.86 in 10.0 mi NW 8.1 mph 17.3 mph N/A   Clear
9:01 AM -0.4 °F -10.4 °F -9.4 °F 66% 29.87 in 10.0 mi WNW 4.6 mph - N/A   Clear
9:21 AM 1.4 °F - -9.4 °F 61% 29.88 in 10.0 mi Calm Calm - N/A   Clear
9:41 AM 3.2 °F -6.2 °F -11.2 °F 51% 29.89 in 10.0 mi NNW 4.6 mph 18.4 mph N/A   Clear
10:01 AM 5.0 °F -4.1 °F -13.0 °F 43% 29.91 in 10.0 mi West 4.6 mph - N/A   Clear
10:21 AM 5.0 °F -11.6 °F -11.2 °F 47% 29.91 in 10.0 mi West 12.7 mph 19.6 mph N/A   Clear
10:41 AM 5.0 °F -11.6 °F -11.2 °F 47% 29.92 in 10.0 mi West 12.7 mph 24.2 mph N/A   Clear
11:01 AM 6.8 °F -13.4 °F -13.0 °F 40% 29.94 in 10.0 mi West 20.7 mph 40.3 mph N/A   Clear
11:21 AM 8.6 °F -9.5 °F -13.0 °F 37% 29.94 in 10.0 mi WSW 17.3 mph 27.6 mph N/A   Clear
11:41 AM 10.4 °F -6.6 °F -11.2 °F 37% 29.96 in 10.0 mi WSW 16.1 mph 21.9 mph N/A   Clear
12:01 PM 10.4 °F -4.8 °F -13.0 °F 34% 29.97 in 10.0 mi West 12.7 mph 20.7 mph N/A   Clear
12:21 PM 10.4 °F -4.1 °F -11.2 °F 37% 29.98 in 10.0 mi West 11.5 mph 18.4 mph N/A   Clear
12:41 PM 10.4 °F -1.5 °F -13.0 °F 34% 29.98 in 10.0 mi WSW 8.1 mph 20.7 mph N/A   Clear
1:01 PM 12.2 °F -4.3 °F -14.8 °F 29% 29.98 in 10.0 mi WSW 16.1 mph 24.2 mph N/A   Clear
1:21 PM 10.4 °F -6.0 °F -18.4 °F 26% 29.99 in 10.0 mi WNW 15.0 mph 34.5 mph N/A   Clear
1:41 PM 12.2 °F -6.3 °F -18.4 °F 24% 29.99 in 10.0 mi WNW 20.7 mph 36.8 mph N/A   Clear
2:01 PM 12.2 °F -3.7 °F -18.4 °F 24% 29.99 in 10.0 mi West 15.0 mph 26.5 mph N/A   Clear
2:21 PM 12.2 °F -1.8 °F -18.4 °F 24% 29.99 in 10.0 mi West 11.5 mph 24.2 mph N/A   Clear
2:41 PM 12.2 °F -3.7 °F -18.4 °F 24% 29.99 in 10.0 mi West 15.0 mph 24.2 mph N/A   Clear
3:01 PM 14.0 °F 0.5 °F -18.4 °F 22% 30.00 in 10.0 mi West 11.5 mph 21.9 mph N/A   Clear
3:21 PM 14.0 °F -1.4 °F -16.6 °F 25% 30.00 in 10.0 mi West 15.0 mph 24.2 mph N/A   Clear
3:41 PM 14.0 °F -2.5 °F -18.4 °F 22% 30.01 in 7.0 mi West 17.3 mph 33.4 mph N/A   Clear
4:01 PM 12.2 °F -3.1 °F -22.0 °F 20% 30.03 in 10.0 mi WNW 13.8 mph 21.9 mph N/A   Clear
4:21 PM 14.0 °F -2.5 °F -18.4 °F 22% 30.03 in 10.0 mi West 17.3 mph 27.6 mph N/A   Clear
4:41 PM 14.0 °F 2.0 °F -18.4 °F 22% 30.03 in 10.0 mi West 9.2 mph 20.7 mph N/A   Clear
5:01 PM 14.0 °F 2.0 °F -18.4 °F 22% 30.04 in 10.0 mi West 9.2 mph - N/A   Clear
5:21 PM 12.2 °F 2.9 °F -18.4 °F 24% 30.03 in 10.0 mi WSW 5.8 mph - N/A   Clear
5:41 PM 12.2 °F -4.8 °F -18.4 °F 24% 30.03 in 10.0 mi West 17.3 mph 24.2 mph N/A   Clear
6:01 PM 10.4 °F -6.6 °F -18.4 °F 26% 30.04 in 10.0 mi West 16.1 mph 19.6 mph N/A   Clear
6:21 PM 10.4 °F -7.7 °F -18.4 °F 26% 30.05 in 10.0 mi WSW 18.4 mph 24.2 mph N/A   Clear
6:41 PM 8.6 °F -9.5 °F -22.0 °F 24% 30.04 in 10.0 mi West 17.3 mph 29.9 mph N/A   Clear
7:01 PM 8.6 °F -9.5 °F -20.2 °F 26% 30.04 in 10.0 mi SW 17.3 mph - N/A   Clear
7:21 PM 6.8 °F -10.0 °F -9.4 °F 48% 30.05 in 10.0 mi SW 13.8 mph 21.9 mph N/A   Clear
7:41 PM 5.0 °F -15.7 °F -7.6 °F 56% 30.04 in 10.0 mi SW 20.7 mph 26.5 mph N/A   Clear
8:01 PM 5.0 °F -13.0 °F -5.8 °F 61% 30.04 in 10.0 mi SW 15.0 mph - N/A   Clear
8:21 PM 5.0 °F -14.2 °F -5.8 °F 61% 30.04 in 10.0 mi SW 17.3 mph 21.9 mph N/A   Clear
8:41 PM 5.0 °F -13.6 °F -5.8 °F 61% 30.05 in 10.0 mi SW 16.1 mph 23.0 mph N/A   Clear
9:01 PM 3.2 °F -14.6 °F -5.8 °F 66% 30.05 in 10.0 mi SW 13.8 mph 21.9 mph N/A   Clear
9:21 PM 3.2 °F -16.5 °F -5.8 °F 66% 30.05 in 10.0 mi SSW 17.3 mph 26.5 mph N/A   Clear
9:41 PM 3.2 °F -19.0 °F -5.8 °F 66% 30.04 in 10.0 mi SW 23.0 mph 28.8 mph N/A   Clear
10:01 PM 3.2 °F -18.1 °F -5.8 °F 66% 30.04 in 10.0 mi SW 20.7 mph 25.3 mph N/A   Clear
10:21 PM 3.2 °F -19.0 °F -5.8 °F 66% 30.04 in 10.0 mi SW 23.0 mph - N/A   Clear
10:41 PM 3.2 °F -20.3 °F -5.8 °F 66% 30.04 in 10.0 mi SW 26.5 mph 31.1 mph N/A   Clear
11:01 PM 3.2 °F -20.7 °F -5.8 °F 66% 30.03 in 10.0 mi SW 27.6 mph - N/A   Clear
11:21 PM 3.2 °F -20.3 °F -5.8 °F 66% 30.02 in 10.0 mi SW 26.5 mph 31.1 mph N/A   Clear
11:41 PM 3.2 °F -20.3 °F -5.8 °F 66% 30.02 in 10.0 mi SW 26.5 mph - N/A   Clear